Tiempo cada hora Almargem do Bispo

Hoy, 31 Julio, Sábado

Tiempo Temperatura Precipitaciones Viento Presión Humedad
00:00 +16°C° 0 mm 7 mps 753 mmHg 83%
01:00 +16°C° 0 mm 8 mps 753 mmHg 78%
02:00 +16°C° 0 mm 8 mps 753 mmHg 74%
03:00 +16°C° 0 mm 8 mps 753 mmHg 74%
04:00 +15°C° 0 mm 8 mps 753 mmHg 74%
05:00 +15°C° 0 mm 8 mps 753 mmHg 74%
06:00 +17°C° 0 mm 8 mps 753 mmHg 66%
07:00 +18°C° 0 mm 8 mps 753 mmHg 58%
08:00 +21°C° 0 mm 9 mps 754 mmHg 50%
09:00 +22°C° 0 mm 8 mps 754 mmHg 48%
10:00 +22°C° 0 mm 8 mps 754 mmHg 46%
11:00 +23°C° 0 mm 8 mps 754 mmHg 44%
12:00 +23°C° 0 mm 9 mps 754 mmHg 45%
13:00 +22°C° 0 mm 9 mps 754 mmHg 45%
14:00 +22°C° 0 mm 9 mps 754 mmHg 46%
15:00 +21°C° 0 mm 9 mps 753 mmHg 48%
16:00 +21°C° 0 mm 9 mps 753 mmHg 51%
17:00 +19°C° 0 mm 9 mps 753 mmHg 53%
18:00 +18°C° 0 mm 8 mps 753 mmHg 62%
19:00 +17°C° 0 mm 8 mps 754 mmHg 70%
20:00 +16°C° 0 mm 7 mps 754 mmHg 79%
21:00 +15°C° 0 mm 6 mps 754 mmHg 80%
22:00 +15°C° 0 mm 6 mps 754 mmHg 82%
23:00 +15°C° 0 mm 5 mps 754 mmHg 83%

Mañana, 1 Agosto, Domingo

Tiempo Temperatura Precipitaciones Viento Presión Humedad
00:00 +15°C° 0 mm 5 mps 753 mmHg 85%
01:00 +15°C° 0 mm 5 mps 753 mmHg 87%
02:00 +15°C° 0 mm 4 mps 753 mmHg 89%
03:00 +15°C° 0 mm 4 mps 753 mmHg 90%
04:00 +15°C° 0 mm 4 mps 753 mmHg 91%
05:00 +15°C° 0 mm 4 mps 753 mmHg 92%
06:00 +18°C° 0 mm 4 mps 753 mmHg 82%
07:00 +19°C° 0 mm 4 mps 753 mmHg 71%
08:00 +21°C° 0 mm 4 mps 753 mmHg 61%
09:00 +23°C° 0 mm 4 mps 753 mmHg 57%
10:00 +25°C° 0 mm 5 mps 753 mmHg 53%
11:00 +26°C° 0 mm 5 mps 753 mmHg 49%
12:00 +26°C° 0 mm 6 mps 752 mmHg 49%
13:00 +26°C° 0 mm 6 mps 752 mmHg 49%
14:00 +27°C° 0 mm 6 mps 752 mmHg 49%
15:00 +26°C° 0 mm 6 mps 751 mmHg 54%
16:00 +24°C° 0 mm 6 mps 751 mmHg 59%
17:00 +23°C° 0 mm 5 mps 751 mmHg 65%
18:00 +21°C° 0 mm 5 mps 751 mmHg 74%
19:00 +20°C° 0 mm 4 mps 751 mmHg 83%
20:00 +19°C° 0 mm 3 mps 751 mmHg 92%
21:00 +19°C° 0 mm 3 mps 751 mmHg 93%
22:00 +19°C° 0 mm 3 mps 751 mmHg 94%
23:00 +19°C° 0 mm 3 mps 751 mmHg 94%

Pasado mañana, 2 Agosto, Lunes

Tiempo Temperatura Precipitaciones Viento Presión Humedad
00:00 +19°C° 0 mm 3 mps 750 mmHg 94%
01:00 +19°C° 0 mm 3 mps 750 mmHg 93%
02:00 +19°C° 0 mm 3 mps 750 mmHg 92%
03:00 +18°C° 0 mm 3 mps 750 mmHg 93%
04:00 +18°C° 0 mm 3 mps 750 mmHg 93%
05:00 +18°C° 0 mm 3 mps 750 mmHg 93%
06:00 +20°C° 0 mm 3 mps 750 mmHg 83%
07:00 +22°C° 0 mm 4 mps 750 mmHg 72%
08:00 +23°C° 0 mm 4 mps 750 mmHg 62%
09:00 +26°C° 0 mm 5 mps 750 mmHg 56%
10:00 +27°C° 0 mm 5 mps 750 mmHg 50%
11:00 +29°C° 0 mm 6 mps 750 mmHg 44%
12:00 +29°C° 0 mm 6 mps 750 mmHg 44%
13:00 +28°C° 0 mm 7 mps 750 mmHg 44%
14:00 +28°C° 0 mm 7 mps 750 mmHg 44%
15:00 +27°C° 0 mm 8 mps 750 mmHg 48%
16:00 +24°C° 0 mm 8 mps 750 mmHg 52%
17:00 +23°C° 0 mm 9 mps 750 mmHg 56%
18:00 +21°C° 0 mm 8 mps 750 mmHg 64%
19:00 +20°C° 0 mm 8 mps 750 mmHg 72%
20:00 +17°C° 0 mm 7 mps 751 mmHg 80%
21:00 +17°C° 0 mm 7 mps 751 mmHg 83%
22:00 +17°C° 0 mm 6 mps 751 mmHg 86%
23:00 +16°C° 0 mm 6 mps 751 mmHg 89%

3 Agosto, Martes

Tiempo Temperatura Precipitaciones Viento Presión Humedad
00:00 +16°C° 0 mm 5 mps 751 mmHg 90%
01:00 +16°C° 0 mm 5 mps 751 mmHg 91%
02:00 +16°C° 0 mm 5 mps 750 mmHg 92%
03:00 +16°C° 0 mm 5 mps 751 mmHg 92%
04:00 +16°C° 0 mm 5 mps 751 mmHg 92%
05:00 +16°C° 0 mm 5 mps 751 mmHg 92%
06:00 +19°C° 0 mm 5 mps 751 mmHg 80%
07:00 +21°C° 0 mm 5 mps 751 mmHg 68%
08:00 +23°C° 0 mm 6 mps 752 mmHg 56%
09:00 +26°C° 0 mm 6 mps 752 mmHg 49%
10:00 +28°C° 0 mm 6 mps 752 mmHg 42%
11:00 +30°C° 0 mm 6 mps 752 mmHg 35%
12:00 +30°C° 0 mm 7 mps 752 mmHg 34%
13:00 +29°C° 0 mm 7 mps 751 mmHg 33%
14:00 +29°C° 0 mm 8 mps 751 mmHg 33%
15:00 +28°C° 0 mm 8 mps 751 mmHg 36%
16:00 +26°C° 0 mm 8 mps 751 mmHg 39%
17:00 +24°C° 0 mm 8 mps 751 mmHg 42%
18:00 +22°C° 0 mm 7 mps 752 mmHg 55%
19:00 +20°C° 0 mm 7 mps 752 mmHg 68%
20:00 +17°C° 0 mm 6 mps 752 mmHg 81%
21:00 +17°C° 0 mm 6 mps 752 mmHg 84%
22:00 +17°C° 0 mm 6 mps 753 mmHg 88%
23:00 +17°C° 0 mm 6 mps 753 mmHg 91%

4 Agosto, Miércoles

Tiempo Temperatura Precipitaciones Viento Presión Humedad
00:00 +19°C° 0 mm 6 mps 752 mmHg 90%
01:00 +19°C° 0 mm 6 mps 752 mmHg 89%
02:00 +19°C° 0 mm 6 mps 752 mmHg 89%
03:00 +19°C° 0 mm 6 mps 752 mmHg 89%
04:00 +19°C° 0 mm 6 mps 752 mmHg 89%
05:00 +19°C° 0 mm 6 mps 752 mmHg 89%
06:00 +20°C° 0 mm 6 mps 753 mmHg 77%
07:00 +22°C° 0 mm 7 mps 753 mmHg 65%
08:00 +24°C° 0 mm 7 mps 753 mmHg 53%
09:00 +26°C° 0 mm 7 mps 753 mmHg 46%
10:00 +28°C° 0 mm 8 mps 753 mmHg 40%
11:00 +29°C° 0 mm 8 mps 753 mmHg 33%
12:00 +29°C° 0 mm 8 mps 753 mmHg 35%
13:00 +28°C° 0 mm 9 mps 753 mmHg 37%
14:00 +28°C° 0 mm 9 mps 753 mmHg 39%
15:00 +27°C° 0 mm 9 mps 753 mmHg 45%
16:00 +26°C° 0 mm 9 mps 753 mmHg 51%
17:00 +23°C° 0 mm 9 mps 753 mmHg 58%
18:00 +22°C° 0 mm 8 mps 753 mmHg 68%
19:00 +20°C° 0 mm 8 mps 754 mmHg 77%
20:00 +18°C° 0 mm 7 mps 754 mmHg 87%
21:00 +18°C° 0 mm 7 mps 754 mmHg 88%
22:00 +18°C° 0 mm 7 mps 754 mmHg 88%
23:00 +18°C° 0 mm 7 mps 754 mmHg 88%

5 Agosto, Jueves

Tiempo Temperatura Precipitaciones Viento Presión Humedad
00:00 +19°C° 0 mm 6 mps 753 mmHg 88%
01:00 +19°C° 0 mm 6 mps 753 mmHg 88%
02:00 +19°C° 0 mm 6 mps 753 mmHg 89%
03:00 +19°C° 0 mm 6 mps 753 mmHg 89%
04:00 +19°C° 0 mm 6 mps 753 mmHg 89%
05:00 +19°C° 0 mm 6 mps 753 mmHg 89%
06:00 +21°C° 0 mm 6 mps 753 mmHg 79%
07:00 +23°C° 0 mm 6 mps 753 mmHg 70%
08:00 +26°C° 0 mm 6 mps 754 mmHg 60%
09:00 +27°C° 0 mm 6 mps 754 mmHg 57%
10:00 +28°C° 0 mm 7 mps 754 mmHg 54%
11:00 +29°C° 0 mm 7 mps 754 mmHg 50%
12:00 +29°C° 0 mm 7 mps 753 mmHg 51%
13:00 +29°C° 0 mm 7 mps 753 mmHg 53%
14:00 +29°C° 0 mm 8 mps 753 mmHg 54%
15:00 +28°C° 0 mm 8 mps 753 mmHg 56%
16:00 +27°C° 0 mm 7 mps 753 mmHg 58%
17:00 +26°C° 0 mm 7 mps 752 mmHg 60%
18:00 +23°C° 0 mm 7 mps 753 mmHg 69%
19:00 +21°C° 0 mm 6 mps 753 mmHg 77%
20:00 +20°C° 0 mm 6 mps 753 mmHg 86%
21:00 +19°C° 0 mm 6 mps 753 mmHg 86%
22:00 +19°C° 0 mm 6 mps 753 mmHg 87%
23:00 +17°C° 0 mm 6 mps 753 mmHg 87%
Mostrar más

Necesitamos Su Consentimiento

Meteoprog y nuestros Proveedores de Servicios pueden almacenar y acceder a sus datos personales como cookies, identificadores de dispositivo u otras tecnologías similares de su dispositivo y procesar dichos datos para personalizar contenido y anuncios, además de ofrecer funciones de redes sociales y analizar el tráfico.

  • Almacenar y/o acceder a información en su dispositivo

    Se puede almacenar o acceder a cookies, identificadores de dispositivo u otra información de su dispositivo para los fines anteriormente indicados.

  • Anuncios y contenido personalizados, medición de anuncios y contenido, percepciones del público, y desarrollo de productos

    Los anuncios y el contenido pueden personalizarse en base a su perfil. Se pueden añadir más datos para personalizar mejor los anuncios y contenidos. Se puede medir el rendimiento de los anuncios y contenidos. Se puede obtener la percepción sobre el público que ha visto los anuncios y contenidos. Dichos datos pueden usarse para desarrollar o mejorar la experiencia del usuario, sistemas y software.

Al hacer clic en ‘Estoy De Acuerdo’ usted permitirá el uso de las cookies, identificadores de dispositivo, balizas web u otras tecnologías similares indicadas. Su configuración puede cambiarse desde el navegador de su dispositivo.

Para ciertos fines, los intereses legítimos pueden ser considerados por encima del consentimiento. Puede leer más sobre ello en nuestra Política de Privacidad y Cookies.